QPF
0.00 0.00 0.00 0.00 0.00 0.00 0.01 0.03 0.06 0.04 0.01 0.00 0.00 0.00 0.00 0.00 0.00 0.00 0.01 0.01 0.01 0.03 0.04 0.05 0.05 0.05 0.05 0.05 0.05 0.05 0.05 0.04 0.03 0.03 0.03 0.05 0.13 0.40
0.00 0.00 0.00 0.00 0.00 0.01 0.01 0.02 0.04 0.05 0.03 0.00 0.00 0.00 0.00 0.00 0.00 0.00 0.00 0.01 0.01 0.01 0.02 0.03 0.03 0.04 0.04 0.04 0.04 0.03 0.03 0.02 0.02 0.02 0.02 0.04 0.08 0.24
0.00 0.00 0.00 0.00 0.01 0.01 0.01 0.02 0.03 0.03 0.04 0.01 0.00 0.00 0.00 0.00 0.00 0.00 0.00 0.00 0.00 0.00 0.01 0.01 0.02 0.02 0.03 0.03 0.03 0.02 0.02 0.02 0.01 0.01 0.02 0.03 0.05 0.13
0.00 0.00 0.01 0.01 0.01 0.01 0.01 0.02 0.02 0.02 0.03 0.03 0.00 0.00 0.00 0.00 0.00 0.00 0.00 0.00 0.00 0.00 0.00 0.01 0.01 0.01 0.02 0.02 0.02 0.01 0.01 0.01 0.01 0.01 0.01 0.01 0.03 0.07
0.00 0.01 0.01 0.01 0.01 0.01 0.01 0.01 0.01 0.01 0.02 0.04 0.02 0.00 0.00 0.00 0.00 0.00 0.00 0.00 0.00 0.00 0.00 0.00 0.01 0.01 0.01 0.01 0.01 0.01 0.01 0.00 0.00 0.00 0.00 0.01 0.02 0.04
0.01 0.01 0.01 0.01 0.01 0.01 0.02 0.02 0.02 0.03 0.03 0.04 0.03 0.01 0.01 0.00 0.01 0.01 0.00 0.00 0.00 0.00 0.00 0.00 0.00 0.00 0.01 0.01 0.01 0.01 0.01 0.01 0.00 0.00 0.00 0.00 0.01 0.02
0.02 0.01 0.01 0.01 0.02 0.03 0.04 0.04 0.05 0.06 0.07 0.07 0.06 0.04 0.02 0.02 0.02 0.01 0.01 0.00 0.00 0.00 0.00 0.00 0.00 0.00 0.00 0.00 0.00 0.01 0.01 0.00 0.00 0.00 0.00 0.00 0.00 0.01
0.01 0.01 0.00 0.00 0.00 0.01 0.01 0.01 0.03 0.09 0.13 0.11 0.07 0.05 0.02 0.02 0.02 0.02 0.02 0.02 0.01 0.00 0.00 0.00 0.00 0.00 0.00 0.00 0.00 0.00 0.00 0.00 0.00 0.00 0.00 0.00 0.00 0.00
0.00 0.00 0.00 0.00 0.00 0.00 0.01 0.02 0.04 0.03 0.04 0.06 0.06 0.03 0.02 0.02 0.03 0.03 0.02 0.02 0.01 0.00 0.01 0.01 0.00 0.00 0.00 0.00 0.00 0.00 0.00 0.00 0.00 0.00 0.00 0.00 0.00 0.00
0.00 0.00 0.00 0.00 0.00 0.02 0.10 0.10 0.03 0.01 0.01 0.03 0.05 0.05 0.05 0.07 0.10 0.08 0.05 0.03 0.01 0.00 0.02 0.02 0.00 0.00 0.00 0.00 0.00 0.00 0.00 0.00 0.00 0.00 0.00 0.01 0.01 0.00
0.00 0.00 0.00 0.00 0.01 0.06 0.09 0.04 0.01 0.00 0.01 0.02 0.03 0.05 0.06 0.07 0.09 0.11 0.07 0.04 0.02 0.00 0.01 0.02 0.01 0.00 0.00 0.00 0.00 0.00 0.00 0.00 0.00 0.00 0.00 0.01 0.01 0.01
0.00 0.00 0.00 0.00 0.03 0.04 0.03 0.02 0.01 0.03 0.03 0.01 0.01 0.01 0.01 0.01 0.03 0.05 0.05 0.03 0.02 0.01 0.01 0.02 0.01 0.02 0.01 0.00 0.00 0.00 0.00 0.00 0.00 0.00 0.00 0.01 0.01 0.01
0.01 0.00 0.00 0.01 0.03 0.03 0.02 0.01 0.03 0.04 0.01 0.01 0.01 0.01 0.01 0.01 0.01 0.02 0.03 0.04 0.03 0.01 0.01 0.02 0.02 0.02 0.02 0.01 0.01 0.00 0.00 0.00 0.00 0.00 0.00 0.01 0.02 0.02
0.01 0.00 0.00 0.01 0.02 0.01 0.01 0.01 0.02 0.01 0.00 0.01 0.01 0.01 0.01 0.02 0.02 0.02 0.02 0.03 0.02 0.01 0.00 0.01 0.01 0.01 0.02 0.01 0.01 0.01 0.01 0.00 0.00 0.00 0.01 0.01 0.01 0.02
0.00 0.00 0.00 0.01 0.00 0.00 0.00 0.01 0.00 0.00 0.00 0.01 0.01 0.01 0.02 0.02 0.03 0.02 0.02 0.02 0.02 0.01 0.01 0.01 0.01 0.01 0.02 0.01 0.01 0.01 0.01 0.01 0.01 0.01 0.01 0.02 0.01 0.02
0.00 0.00 0.00 0.00 0.00 0.00 0.00 0.00 0.00 0.00 0.01 0.01 0.01 0.02 0.02 0.02 0.03 0.03 0.03 0.02 0.02 0.01 0.01 0.01 0.02 0.02 0.02 0.01 0.01 0.01 0.01 0.02 0.02 0.02 0.02 0.02 0.03 0.02
0.01 0.00 0.00 0.00 0.00 0.00 0.00 0.00 0.00 0.00 0.00 0.00 0.01 0.02 0.02 0.02 0.03 0.03 0.04 0.04 0.03 0.02 0.01 0.01 0.02 0.02 0.01 0.01 0.01 0.01 0.01 0.01 0.02 0.02 0.03 0.04 0.04 0.03
0.00 0.00 0.00 0.00 0.00 0.00 0.00 0.00 0.00 0.00 0.00 0.01 0.01 0.02 0.02 0.03 0.03 0.03 0.04 0.05 0.04 0.03 0.03 0.03 0.03 0.04 0.03 0.02 0.01 0.01 0.01 0.02 0.02 0.03 0.04 0.05 0.05 0.05
0.00 0.00 0.00 0.00 0.00 0.00 0.01 0.01 0.00 0.00 0.00 0.00 0.01 0.02 0.03 0.03 0.04 0.04 0.05 0.06 0.05 0.05 0.05 0.05 0.05 0.05 0.04 0.02 0.01 0.02 0.02 0.03 0.04 0.04 0.05 0.06 0.05 0.04
0.00 0.00 0.00 0.00 0.00 0.01 0.01 0.01 0.01 0.00 0.00 0.00 0.01 0.01 0.02 0.03 0.04 0.04 0.05 0.07 0.07 0.06 0.06 0.07 0.07 0.07 0.05 0.03 0.03 0.03 0.03 0.04 0.05 0.05 0.06 0.07 0.08 0.07
0.00 0.00 0.00 0.00 0.00 0.01 0.01 0.01 0.01 0.01 0.01 0.00 0.00 0.01 0.02 0.03 0.04 0.04 0.05 0.06 0.06 0.06 0.06 0.07 0.08 0.09 0.08 0.06 0.05 0.05 0.05 0.05 0.06 0.06 0.08 0.11 0.14 0.15
0.00 0.00 0.00 0.00 0.01 0.01 0.01 0.01 0.01 0.01 0.01 0.00 0.00 0.00 0.01 0.02 0.04 0.05 0.06 0.07 0.07 0.07 0.07 0.09 0.11 0.11 0.09 0.08 0.07 0.07 0.07 0.07 0.07 0.09 0.14 0.17 0.16 0.14
0.00 0.00 0.00 0.00 0.00 0.01 0.01 0.01 0.01 0.01 0.01 0.01 0.00 0.00 0.01 0.02 0.03 0.04 0.06 0.07 0.08 0.08 0.09 0.11 0.14 0.13 0.10 0.09 0.09 0.09 0.10 0.10 0.11 0.13 0.16 0.21 0.18 0.11
MSLP
1024.47 1024.39 1024.18 1023.82 1023.29 1022.61 1021.79 1020.88 1019.93 1018.99 1018.12 1017.34 1016.67 1016.11 1015.64 1015.22 1014.80 1014.36 1013.84 1013.22 1012.50 1011.68 1010.77 1009.83 1008.87 1007.96 1007.12 1006.39 1005.77 1005.27 1004.86 1004.53 1004.23 1003.94 1003.63 1003.31 1002.99 1002.69
1023.29 1023.18 1022.96 1022.60 1022.10 1021.45 1020.67 1019.81 1018.90 1018.00 1017.13 1016.35 1015.66 1015.08 1014.57 1014.13 1013.71 1013.27 1012.79 1012.23 1011.59 1010.86 1010.06 1009.21 1008.34 1007.50 1006.71 1006.01 1005.43 1004.94 1004.56 1004.25 1003.98 1003.73 1003.45 1003.14 1002.81 1002.48
1022.04 1021.89 1021.65 1021.29 1020.81 1020.21 1019.49 1018.68 1017.83 1016.97 1016.13 1015.35 1014.65 1014.03 1013.49 1013.00 1012.55 1012.10 1011.63 1011.11 1010.53 1009.87 1009.15 1008.39 1007.61 1006.84 1006.12 1005.49 1004.95 1004.52 1004.20 1003.95 1003.75 1003.56 1003.34 1003.08 1002.76 1002.40
1020.75 1020.56 1020.30 1019.94 1019.49 1018.92 1018.26 1017.53 1016.74 1015.93 1015.12 1014.35 1013.63 1012.98 1012.39 1011.86 1011.37 1010.89 1010.42 1009.91 1009.36 1008.76 1008.11 1007.42 1006.72 1006.02 1005.37 1004.80 1004.34 1003.99 1003.74 1003.59 1003.48 1003.39 1003.26 1003.06 1002.77 1002.42
1019.47 1019.24 1018.96 1018.60 1018.16 1017.64 1017.03 1016.36 1015.63 1014.86 1014.09 1013.33 1012.61 1011.93 1011.31 1010.73 1010.20 1009.70 1009.21 1008.70 1008.18 1007.62 1007.01 1006.38 1005.73 1005.09 1004.51 1004.00 1003.60 1003.33 1003.17 1003.12 1003.13 1003.14 1003.12 1003.01 1002.78 1002.45
1018.22 1017.96 1017.64 1017.28 1016.85 1016.36 1015.80 1015.18 1014.50 1013.79 1013.05 1012.31 1011.59 1010.90 1010.25 1009.64 1009.08 1008.56 1008.06 1007.56 1007.05 1006.51 1005.93 1005.33 1004.72 1004.12 1003.57 1003.11 1002.76 1002.56 1002.48 1002.52 1002.63 1002.76 1002.85 1002.84 1002.69 1002.41
1017.02 1016.72 1016.38 1016.00 1015.58 1015.11 1014.58 1014.00 1013.37 1012.69 1011.99 1011.28 1010.57 1009.88 1009.22 1008.61 1008.04 1007.51 1007.01 1006.52 1006.02 1005.49 1004.94 1004.35 1003.75 1003.16 1002.63 1002.18 1001.86 1001.69 1001.66 1001.77 1001.96 1002.19 1002.38 1002.47 1002.42 1002.21
1015.86 1015.53 1015.17 1014.77 1014.35 1013.89 1013.39 1012.84 1012.24 1011.60 1010.93 1010.24 1009.55 1008.88 1008.24 1007.64 1007.08 1006.56 1006.07 1005.60 1005.11 1004.60 1004.05 1003.47 1002.86 1002.27 1001.72 1001.26 1000.93 1000.75 1000.74 1000.87 1001.12 1001.41 1001.69 1001.87 1001.92 1001.81
1014.76 1014.40 1014.02 1013.61 1013.19 1012.74 1012.25 1011.71 1011.14 1010.53 1009.88 1009.22 1008.56 1007.91 1007.29 1006.72 1006.19 1005.70 1005.24 1004.78 1004.32 1003.82 1003.28 1002.69 1002.08 1001.46 1000.88 1000.38 1000.01 999.80 999.76 999.88 1000.13 1000.46 1000.79 1001.05 1001.20 1001.20
1013.71 1013.34 1012.95 1012.54 1012.12 1011.67 1011.19 1010.67 1010.11 1009.52 1008.89 1008.25 1007.61 1006.99 1006.40 1005.85 1005.35 1004.89 1004.46 1004.04 1003.61 1003.13 1002.60 1002.02 1001.39 1000.75 1000.13 999.58 999.16 998.89 998.79 998.86 999.08 999.40 999.75 1000.07 1000.30 1000.40
1012.73 1012.37 1011.99 1011.60 1011.19 1010.75 1010.28 1009.77 1009.22 1008.63 1008.01 1007.38 1006.75 1006.14 1005.57 1005.04 1004.56 1004.13 1003.73 1003.34 1002.93 1002.49 1001.99 1001.42 1000.80 1000.14 999.50 998.91 998.42 998.08 997.90 997.90 998.06 998.34 998.67 999.02 999.30 999.50
1011.82 1011.50 1011.16 1010.81 1010.43 1010.01 1009.55 1009.05 1008.50 1007.90 1007.28 1006.64 1006.00 1005.39 1004.81 1004.29 1003.82 1003.40 1003.02 1002.66 1002.28 1001.87 1001.40 1000.87 1000.27 999.63 998.98 998.37 997.83 997.43 997.17 997.09 997.16 997.37 997.66 998.00 998.31 998.57
1011.01 1010.76 1010.49 1010.20 1009.86 1009.47 1009.03 1008.53 1007.97 1007.37 1006.72 1006.06 1005.40 1004.76 1004.17 1003.62 1003.14 1002.72 1002.34 1001.99 1001.64 1001.26 1000.84 1000.35 999.80 999.20 998.57 997.96 997.40 996.95 996.63 996.46 996.44 996.56 996.79 997.08 997.40 997.69
1010.32 1010.17 1009.99 1009.77 1009.49 1009.14 1008.71 1008.22 1007.65 1007.02 1006.36 1005.66 1004.96 1004.29 1003.65 1003.07 1002.56 1002.11 1001.71 1001.36 1001.02 1000.67 1000.29 999.85 999.36 998.81 998.24 997.65 997.10 996.63 996.26 996.01 995.91 995.94 996.08 996.31 996.59 996.89
1009.75 1009.72 1009.64 1009.50 1009.28 1008.97 1008.56 1008.07 1007.49 1006.85 1006.15 1005.42 1004.69 1003.97 1003.28 1002.65 1002.09 1001.59 1001.16 1000.79 1000.44 1000.10 999.75 999.36 998.93 998.44 997.93 997.39 996.87 996.40 996.00 995.70 995.53 995.47 995.52 995.68 995.89 996.16
1009.30 1009.39 1009.41 1009.34 1009.17 1008.90 1008.51 1008.03 1007.45 1006.79 1006.07 1005.32 1004.55 1003.79 1003.06 1002.37 1001.75 1001.20 1000.71 1000.29 999.91 999.55 999.21 998.84 998.45 998.03 997.57 997.09 996.61 996.16 995.76 995.43 995.20 995.08 995.05 995.12 995.27 995.49
1008.96 1009.15 1009.25 1009.24 1009.11 1008.86 1008.49 1008.01 1007.43 1006.77 1006.05 1005.29 1004.51 1003.73 1002.96 1002.23 1001.55 1000.93 1000.37 999.87 999.43 999.02 998.65 998.28 997.90 997.51 997.09 996.67 996.24 995.82 995.43 995.10 994.84 994.67 994.58 994.59 994.68 994.84
1008.68 1008.94 1009.10 1009.12 1009.02 1008.78 1008.42 1007.95 1007.39 1006.75 1006.05 1005.31 1004.54 1003.76 1002.98 1002.21 1001.47 1000.78 1000.13 999.53 998.99 998.50 998.05 997.63 997.22 996.83 996.44 996.04 995.65 995.28 994.92 994.61 994.36 994.17 994.06 994.02 994.07 994.19
1008.43 1008.73 1008.91 1008.95 1008.85 1008.61 1008.26 1007.81 1007.28 1006.68 1006.02 1005.33 1004.59 1003.83 1003.05 1002.27 1001.48 1000.71 999.96 999.24 998.58 997.96 997.40 996.89 996.42 995.98 995.58 995.20 994.84 994.50 994.20 993.93 993.71 993.54 993.44 993.41 993.45 993.56
1008.16 1008.47 1008.64 1008.67 1008.57 1008.34 1008.00 1007.58 1007.09 1006.54 1005.95 1005.32 1004.64 1003.93 1003.17 1002.37 1001.54 1000.69 999.83 998.99 998.18 997.41 996.71 996.07 995.50 994.99 994.55 994.16 993.82 993.53 993.28 993.07 992.91 992.80 992.75 992.76 992.83 992.96
1007.85 1008.14 1008.29 1008.31 1008.19 1007.96 1007.64 1007.25 1006.82 1006.34 1005.83 1005.28 1004.67 1004.01 1003.28 1002.48 1001.61 1000.69 999.73 998.76 997.80 996.87 996.01 995.23 994.53 993.93 993.43 993.02 992.68 992.42 992.23 992.09 992.01 991.99 992.01 992.10 992.23 992.42
1007.48 1007.74 1007.87 1007.86 1007.73 1007.51 1007.22 1006.88 1006.50 1006.10 1005.67 1005.20 1004.67 1004.07 1003.37 1002.58 1001.68 1000.70 999.65 998.55 997.45 996.37 995.36 994.44 993.62 992.92 992.34 991.89 991.55 991.31 991.17 991.10 991.10 991.17 991.29 991.46 991.69 991.96
1007.05 1007.29 1007.39 1007.37 1007.24 1007.03 1006.77 1006.48 1006.17 1005.84 1005.49 1005.09 1004.63 1004.08 1003.42 1002.63 1001.72 1000.70 999.57 998.39 997.17 995.98 994.84 993.78 992.85 992.06 991.41 990.91 990.55 990.32 990.20 990.18 990.25 990.40 990.60 990.87 991.19 991.55
Thickness
5305 5289 5273 5259 5244 5228 5214 5201 5192 5201 5217 5206 5191 5180 5170 5165 5162 5160 5159 5160 5165 5175 5189 5207 5227 5249 5275 5302 5332 5363 5394 5426 5458 5490 5521 5549 5575 5598
5300 5285 5270 5256 5242 5228 5216 5205 5193 5187 5199 5202 5190 5181 5172 5166 5162 5159 5158 5159 5163 5170 5182 5199 5218 5240 5264 5289 5318 5349 5380 5412 5445 5478 5508 5536 5562 5586
5296 5282 5269 5255 5242 5230 5219 5208 5198 5189 5191 5200 5188 5182 5173 5167 5163 5159 5157 5157 5160 5166 5177 5193 5211 5232 5255 5279 5306 5336 5367 5400 5433 5465 5495 5523 5550 5575
5295 5280 5268 5254 5243 5231 5221 5211 5201 5192 5187 5192 5191 5182 5176 5169 5165 5161 5158 5158 5159 5164 5174 5188 5205 5226 5247 5271 5297 5325 5356 5388 5421 5453 5483 5512 5538 5562
5293 5279 5267 5253 5243 5233 5223 5213 5204 5196 5189 5187 5189 5185 5179 5172 5167 5164 5160 5158 5158 5162 5170 5183 5200 5220 5242 5265 5291 5318 5348 5380 5413 5443 5471 5498 5525 5551
5292 5279 5267 5254 5244 5235 5225 5216 5207 5200 5193 5188 5188 5187 5182 5175 5167 5164 5162 5159 5159 5161 5167 5178 5194 5214 5236 5261 5287 5314 5343 5371 5402 5432 5461 5488 5514 5540
5292 5280 5268 5256 5246 5236 5227 5219 5209 5202 5197 5193 5191 5187 5182 5175 5168 5163 5161 5160 5160 5159 5165 5175 5189 5209 5231 5256 5282 5308 5336 5366 5396 5425 5453 5480 5506 5531
5295 5283 5270 5257 5246 5238 5230 5221 5212 5204 5200 5195 5192 5186 5182 5175 5169 5164 5160 5159 5162 5162 5164 5176 5188 5207 5229 5251 5278 5305 5332 5361 5391 5420 5447 5474 5499 5524
5294 5281 5269 5257 5248 5236 5228 5221 5213 5205 5201 5195 5191 5186 5181 5177 5171 5167 5164 5162 5164 5164 5165 5177 5189 5208 5229 5253 5279 5304 5330 5356 5385 5414 5441 5467 5492 5517
5291 5279 5267 5257 5245 5238 5232 5226 5215 5206 5201 5196 5191 5188 5184 5180 5175 5172 5170 5169 5168 5169 5170 5180 5193 5210 5231 5254 5281 5306 5331 5356 5382 5410 5436 5462 5487 5511
5289 5278 5266 5257 5249 5244 5237 5227 5218 5210 5205 5201 5197 5192 5188 5183 5179 5176 5174 5172 5175 5177 5179 5184 5198 5214 5236 5261 5286 5310 5334 5357 5382 5407 5432 5457 5481 5504
5289 5278 5268 5258 5251 5244 5235 5226 5218 5214 5209 5202 5197 5192 5187 5183 5181 5177 5173 5172 5175 5179 5186 5191 5202 5217 5244 5269 5291 5312 5334 5357 5380 5404 5429 5453 5476 5498
5289 5278 5267 5258 5251 5244 5236 5225 5218 5217 5209 5202 5198 5195 5191 5187 5184 5181 5178 5177 5179 5184 5190 5196 5207 5221 5239 5264 5289 5312 5334 5356 5379 5402 5426 5450 5472 5496
5288 5277 5267 5259 5252 5244 5234 5226 5222 5216 5206 5202 5200 5198 5195 5192 5190 5188 5187 5188 5189 5193 5198 5202 5210 5222 5236 5256 5281 5309 5333 5356 5378 5400 5424 5447 5469 5492
5286 5277 5268 5259 5250 5239 5231 5226 5220 5210 5206 5204 5201 5199 5197 5196 5195 5196 5197 5199 5202 5206 5210 5214 5220 5229 5239 5254 5276 5299 5325 5352 5375 5398 5420 5443 5467 5489
5283 5273 5265 5255 5245 5237 5230 5221 5214 5209 5207 5204 5202 5201 5201 5201 5201 5201 5203 5207 5212 5218 5223 5228 5233 5240 5249 5261 5276 5297 5318 5344 5372 5396 5419 5442 5465 5487
5281 5269 5258 5249 5240 5233 5226 5220 5214 5210 5207 5205 5204 5204 5204 5205 5206 5207 5209 5213 5218 5225 5232 5240 5246 5252 5260 5270 5285 5303 5322 5344 5368 5391 5415 5440 5464 5489
5280 5266 5256 5247 5239 5232 5226 5220 5214 5210 5207 5206 5205 5205 5206 5207 5210 5212 5215 5219 5224 5231 5239 5247 5256 5264 5272 5283 5295 5311 5328 5347 5367 5389 5414 5440 5465 5489
5276 5263 5253 5244 5237 5230 5224 5219 5214 5210 5207 5206 5206 5206 5208 5210 5213 5217 5221 5225 5231 5238 5246 5254 5263 5274 5287 5300 5313 5320 5333 5349 5367 5389 5414 5441 5468 5492
5271 5261 5252 5244 5236 5230 5224 5218 5213 5210 5208 5207 5207 5208 5210 5213 5216 5220 5224 5229 5237 5245 5253 5262 5270 5280 5292 5304 5316 5329 5338 5352 5370 5392 5417 5441 5465 5487
5270 5260 5252 5244 5236 5229 5223 5218 5213 5210 5208 5207 5208 5210 5212 5215 5219 5223 5228 5235 5242 5249 5257 5267 5276 5285 5292 5302 5316 5332 5345 5357 5375 5394 5416 5436 5456 5477
5269 5260 5252 5244 5237 5229 5223 5218 5214 5211 5210 5209 5209 5211 5214 5217 5221 5226 5232 5238 5245 5253 5262 5273 5283 5290 5299 5311 5326 5337 5349 5361 5375 5391 5410 5435 5457 5481
5269 5260 5252 5244 5237 5230 5224 5219 5215 5213 5211 5209 5210 5212 5215 5220 5224 5229 5235 5242 5250 5258 5268 5280 5290 5298 5308 5318 5329 5340 5351 5364 5378 5393 5413 5437 5462 5487